GFSSE_925_thetae_231.txt.gz
Theta_e
351 345 334 327 325 324 328 328 327 328 328 329 332 333 334 335 337 336 335 332 329 326 330 340 342 342 342 338 336 337 338 337 335 334 334 334 332 332 331 330 329 330 329
351 343 335 327 326 324 327 327 327 329 332 332 331 331 333 335 335 333 331 328 326 331 336 342 345 349 344 340 337 339 339 337 336 334 334 333 333 332 330 330 330 328 329
343 342 336 326 325 324 327 328 329 331 334 335 335 335 335 335 331 331 328 330 331 339 340 344 346 349 346 341 338 339 339 338 331 332 330 330 331 331 331 331 330 328 328
339 341 338 328 326 325 327 328 329 331 333 333 334 333 332 330 331 328 331 334 337 339 343 344 345 347 347 343 341 340 339 341 332 324 330 331 331 331 333 329 328 329 330
340 342 340 330 327 325 326 329 329 330 332 332 333 331 329 330 331 328 332 335 339 340 342 344 345 344 342 341 341 342 341 335 327 321 324 327 329 330 330 328 328 328 327
340 342 341 334 329 326 326 329 329 330 331 331 332 330 327 330 331 329 331 336 339 339 341 343 344 343 342 341 341 341 340 332 322 322 323 326 330 331 330 328 328 327 327
341 343 342 338 332 330 326 327 330 330 331 331 332 330 327 329 331 330 329 334 337 337 337 342 343 344 343 340 340 341 336 332 326 323 322 325 329 330 328 328 327 327 326
340 343 342 340 338 335 331 327 330 331 331 331 330 329 328 328 329 329 329 328 334 335 336 337 342 344 344 343 341 342 341 334 330 325 322 325 330 329 328 327 327 326 325
338 340 338 340 340 339 337 330 328 330 331 331 331 330 330 329 329 328 329 329 330 335 336 337 339 343 344 344 341 339 338 335 333 328 324 325 331 329 327 326 326 325 324
337 339 335 336 339 340 340 338 330 329 331 332 332 332 331 331 330 329 328 329 327 331 335 338 341 342 344 345 342 339 338 334 333 329 325 325 331 329 327 327 326 325 323
344 343 338 337 338 340 342 341 337 330 331 332 332 333 332 331 330 331 328 328 329 326 333 337 340 343 344 345 344 339 337 337 333 331 327 323 330 329 328 327 326 324 323
344 341 343 342 342 342 341 341 340 333 331 331 333 334 334 333 331 331 330 327 327 328 327 334 337 340 343 345 344 341 339 336 333 331 329 324 329 330 328 327 326 324 323
344 338 340 343 341 342 341 341 341 335 333 333 334 336 336 334 332 331 332 329 326 327 327 328 334 338 340 343 344 343 340 340 334 332 331 327 329 331 329 328 326 325 323
344 334 335 337 338 341 342 341 341 338 337 335 337 338 337 336 334 330 331 332 329 328 327 327 330 336 339 341 343 344 343 340 337 335 332 330 330 331 330 328 326 325 323
344 340 334 333 334 339 340 340 340 339 338 338 339 338 338 337 334 332 338 339 336 336 335 331 327 330 335 338 340 342 343 343 342 342 337 333 327 331 331 330 328 326 324
344 343 336 333 332 334 333 334 336 338 336 338 337 334 336 336 335 333 339 341 342 341 338 336 332 327 327 333 337 340 344 342 343 344 337 334 329 330 332 330 330 327 326
348 347 341 334 333 333 338 339 335 333 333 334 334 332 333 334 335 334 338 340 343 344 342 339 337 331 329 333 334 335 340 343 342 342 338 334 333 329 330 333 331 330 328
346 346 344 337 336 333 341 342 341 337 336 336 338 338 337 337 340 336 338 339 341 344 343 341 340 337 334 336 337 337 338 341 341 342 338 335 334 330 330 332 332 331 330
347 348 344 342 339 338 341 343 344 342 341 336 342 342 340 340 341 337 338 343 345 342 343 342 342 339 339 338 338 338 337 338 338 341 340 337 334 333 329 329 331 332 330
344 346 349 347 344 343 340 347 347 348 349 345 346 345 342 341 341 339 334 341 342 341 342 343 342 341 340 340 340 339 339 338 340 340 339 337 334 335 333 329 329 330 329
341 347 347 348 347 344 345 348 350 350 349 346 346 344 343 343 342 339 334 331 331 340 342 341 341 341 340 340 338 337 338 338 339 340 339 338 337 336 337 333 329 328 330
336 343 345 347 348 345 343 350 349 349 346 346 345 345 342 342 339 334 332 333 339 341 342 342 342 339 338 336 337 335 331 334 338 339 339 339 339 337 337 336 332 329 328
326 338 343 344 348 348 342 346 346 346 346 346 345 343 339 340 340 337 335 333 342 343 341 338 338 335 336 337 336 333 328 331 329 332 335 338 338 336 333 335 335 333 331
322 329 340 345 347 348 344 344 345 345 345 345 336 338 336 338 333 333 336 339 342 343 340 336 339 338 338 339 339 337 336 333 330 331 335 335 334 334 334 335 336 335 333
321 323 334 345 347 349 342 341 343 343 337 335 336 341 338 338 330 332 337 340 341 340 339 338 338 339 340 340 339 338 337 336 333 329 329 332 335 335 337 336 336 334 334
322 325 327 342 345 346 344 339 341 333 332 339 343 342 340 338 329 332 336 337 337 337 338 337 338 341 341 341 340 340 339 337 334 332 331 330 331 335 335 336 336 335 335

GFSSE_925_thetae_234.txt.gz
Theta_e
346 338 327 326 333 332 331 332 336 340 339 339 337 334 336 337 337 337 334 332 329 334 341 342 341 339 336 337 338 338 338 336 335 334 333 333 332 331 331 330 329 329 329
348 338 326 325 329 330 327 327 329 336 338 337 335 336 337 337 336 333 331 327 331 342 348 349 347 345 339 340 340 341 339 336 335 334 333 333 332 330 330 330 329 328 328
349 338 325 325 326 329 326 327 327 328 329 330 332 334 336 335 331 329 326 328 336 344 347 348 349 347 342 340 339 339 336 329 332 332 331 330 331 332 331 329 330 331 331
344 337 325 325 325 328 326 328 330 332 333 333 333 334 333 330 328 327 329 333 340 343 347 347 347 346 342 340 339 339 339 333 330 329 330 330 330 332 330 329 330 328 327
343 336 326 326 325 328 327 328 329 331 332 333 333 332 329 329 327 331 333 336 339 344 348 346 345 345 344 341 341 341 337 329 322 324 326 328 330 330 329 328 328 328 326
345 337 327 326 325 327 327 327 328 330 330 331 330 328 329 329 327 331 334 336 338 342 345 346 344 342 340 340 341 341 335 327 323 323 324 329 331 330 329 329 327 327 326
344 339 330 327 325 325 328 328 328 329 330 330 329 326 328 329 328 328 334 336 337 339 343 344 344 342 339 339 340 339 337 329 325 323 324 327 330 329 328 327 327 327 325
342 341 335 329 327 325 326 328 329 329 330 330 330 327 328 330 329 329 330 336 336 336 339 344 344 344 341 340 340 341 338 331 328 325 323 326 329 329 328 328 326 326 325
343 342 339 334 330 328 326 327 329 329 330 330 329 328 327 328 328 329 328 329 334 335 336 340 344 344 343 342 340 339 339 334 330 327 323 326 329 329 328 328 326 325 325
344 344 342 339 334 333 330 326 328 329 330 331 330 329 328 328 328 328 328 328 328 334 335 338 341 344 344 343 341 339 338 334 331 328 325 326 329 329 328 327 326 325 325
345 345 344 342 341 337 336 330 327 329 330 330 331 331 330 330 330 329 327 328 328 328 333 336 341 342 344 344 342 340 337 336 333 329 326 329 330 330 328 327 326 325 324
346 346 343 343 343 341 340 338 332 329 330 331 331 332 332 331 330 330 329 327 327 327 328 335 339 342 344 345 344 341 339 337 334 331 329 329 331 331 329 327 326 325 324
342 339 338 342 342 341 341 340 338 332 330 331 331 333 334 333 332 331 331 330 327 327 327 329 336 340 343 344 344 343 340 339 336 333 331 330 330 332 330 328 327 325 325
344 339 336 338 338 338 340 342 341 338 333 331 331 334 335 335 334 332 331 331 329 327 328 327 329 336 340 342 343 344 343 341 339 334 332 332 332 333 331 329 327 325 324
345 339 335 334 334 335 341 342 341 341 336 333 333 334 336 337 335 334 331 331 331 330 330 330 328 326 333 339 342 343 343 343 342 339 335 333 332 332 332 331 328 326 324
344 343 336 334 335 337 340 341 340 340 338 336 336 335 337 338 337 335 331 334 338 336 337 337 335 331 328 331 336 340 341 343 343 343 341 337 334 330 333 332 331 328 326
346 345 344 334 332 334 338 337 337 337 338 338 338 337 338 338 338 336 334 334 339 340 342 341 339 337 333 329 330 333 335 336 339 341 341 338 334 332 330 334 332 330 328
347 345 344 341 334 334 334 334 334 336 337 335 335 335 336 337 337 337 336 335 338 339 342 342 341 339 338 333 334 336 336 337 337 338 340 338 334 334 330 332 333 332 330
347 347 344 343 336 334 332 333 335 339 335 334 334 334 335 335 336 338 338 336 341 342 342 342 341 341 339 337 338 338 338 337 338 338 339 339 334 334 334 330 331 332 332
339 344 344 345 341 335 334 334 340 342 340 339 339 335 340 340 340 341 339 335 337 343 342 342 341 340 339 339 339 339 339 339 338 337 338 338 336 335 334 332 330 331 331
338 343 344 345 344 339 337 336 341 343 344 343 344 345 343 343 341 340 338 337 336 342 341 341 340 340 340 340 338 337 337 337 338 339 339 339 338 336 335 334 331 330 330
334 345 346 345 344 342 340 339 343 345 345 347 347 346 345 343 343 341 339 337 333 332 339 341 340 339 337 336 336 333 334 331 334 336 338 338 338 338 338 337 335 334 330
318 332 346 346 345 344 341 341 344 346 347 347 343 343 344 343 343 342 339 333 332 340 340 341 341 337 334 335 334 330 331 335 329 332 334 334 335 336 336 334 334 334 333
315 319 333 345 345 345 343 342 344 346 346 343 340 340 341 342 340 339 338 333 333 341 341 339 337 335 335 337 336 335 334 333 335 336 332 333 334 333 334 334 335 335 334
318 316 320 339 345 345 344 344 344 346 345 339 339 340 339 338 337 338 335 334 334 340 342 338 338 336 336 336 337 337 336 334 332 331 336 332 334 334 334 333 336 334 334
324 317 318 332 344 345 344 343 344 345 343 340 339 342 337 337 336 337 332 336 339 342 341 339 336 337 337 339 339 338 337 336 332 332 332 332 332 335 334 333 336 336 335

GFSSE_925_thetae_237.txt.gz
Theta_e
352 336 328 336 336 338 341 342 340 335 333 332 332 335 336 335 335 333 333 332 337 345 346 339 336 336 337 336 336 338 336 336 335 334 333 332 332 331 330 329 330 329 336
351 346 327 335 335 336 340 340 339 338 337 335 333 334 335 335 334 331 330 331 340 347 348 343 338 337 337 338 340 338 336 336 335 335 333 332 332 330 331 330 329 329 333
350 346 328 333 332 331 334 339 339 339 338 334 333 333 334 333 330 328 327 334 346 345 348 347 343 338 339 337 338 335 332 332 333 333 330 330 333 330 331 332 334 331 328
348 346 343 330 329 327 328 331 336 336 333 332 332 334 334 330 328 327 330 336 343 346 346 346 346 341 339 338 338 337 331 331 329 328 329 330 330 330 329 329 328 327 328
350 344 345 329 328 326 326 326 328 329 330 331 333 333 330 328 327 329 334 340 343 346 347 348 345 342 341 341 340 339 331 324 323 328 328 330 329 329 329 328 328 328 326
348 343 331 327 327 326 327 328 330 331 332 332 332 330 328 326 329 332 336 339 347 348 347 346 345 344 341 340 341 339 332 325 329 329 330 330 329 330 330 329 327 326 325
348 343 343 327 328 327 328 328 329 329 331 332 330 328 328 327 328 333 337 340 342 347 347 345 343 341 340 340 340 339 335 327 331 329 329 329 328 329 329 328 328 326 326
348 346 344 327 328 328 328 328 329 329 329 329 326 327 328 328 327 330 335 336 338 342 345 346 343 340 339 339 340 340 336 330 330 330 329 329 329 329 329 328 327 326 326
349 347 344 339 328 329 328 328 328 328 328 328 327 326 327 328 328 327 330 335 336 337 342 345 344 342 340 340 340 340 338 332 332 331 330 329 330 330 329 328 326 326 325
351 348 345 345 340 337 332 329 328 329 329 328 328 327 327 327 327 328 328 329 334 335 337 341 344 344 343 342 340 339 338 333 332 332 332 330 330 330 329 328 326 326 324
350 350 348 343 343 341 341 334 329 330 330 330 330 329 328 338 337 334 333 328 328 334 336 339 343 345 344 344 342 339 338 337 333 333 333 326 330 330 329 328 326 326 325
349 349 349 347 346 344 343 342 341 340 340 341 338 337 340 341 341 340 336 329 329 328 334 338 344 345 345 348 348 343 342 338 335 334 333 330 331 331 330 328 326 326 325
347 348 348 350 349 346 345 345 343 342 344 343 341 339 340 340 339 339 341 339 340 334 336 338 344 346 349 348 348 347 344 339 336 335 332 331 331 333 331 329 326 326 325
346 346 347 348 349 349 347 346 345 343 343 343 343 340 339 340 340 341 340 340 341 339 338 337 339 345 346 347 348 347 347 343 339 337 334 332 332 334 332 330 328 326 325
345 345 345 347 347 346 343 348 347 346 344 343 340 338 342 342 342 341 341 339 339 340 338 337 336 337 342 345 347 347 347 346 342 339 337 334 334 333 334 332 329 327 325
346 346 345 346 346 343 345 349 348 344 345 339 339 341 334 342 340 341 341 340 339 340 340 340 340 338 336 338 343 345 346 346 345 342 340 338 336 334 334 334 331 329 327
348 347 346 346 345 338 339 342 342 340 345 342 339 335 335 335 337 340 341 340 340 343 342 343 343 340 339 336 335 336 338 340 342 343 341 340 340 336 332 334 333 332 330
349 347 346 344 344 342 343 346 345 344 341 341 341 338 337 337 338 339 341 339 339 339 341 344 344 343 341 340 337 338 340 340 342 341 339 339 339 340 337 331 334 334 332
343 348 346 345 344 343 341 344 344 344 343 344 341 339 337 338 338 339 341 340 335 341 344 343 344 343 343 342 340 340 341 341 343 342 340 339 338 338 339 336 332 333 333
337 344 347 345 344 343 341 339 342 342 338 342 337 336 336 336 336 337 341 341 339 343 345 345 345 343 343 343 341 343 344 344 344 342 340 339 338 338 338 338 337 335 333
323 338 344 346 345 343 343 341 341 341 343 344 339 338 339 337 339 340 342 341 337 341 344 341 342 345 344 343 344 343 342 341 339 337 339 340 339 339 338 338 338 336 336
324 326 336 342 345 343 343 341 341 341 345 345 345 344 341 342 342 342 340 339 338 341 344 344 344 341 342 342 342 340 334 334 336 334 335 337 338 339 338 338 338 337 336
323 323 336 343 344 343 343 343 343 345 344 345 345 346 344 346 344 342 341 341 340 337 339 343 344 339 342 339 338 333 332 329 334 336 338 338 338 337 338 338 338 337 336
325 324 321 328 347 344 343 343 343 343 345 346 348 347 342 342 343 342 342 340 337 337 342 343 344 342 337 337 338 336 336 337 334 332 336 337 338 338 338 338 338 337 335
328 328 322 321 335 346 344 343 345 346 347 348 348 345 337 337 342 343 340 337 334 336 344 344 340 336 339 339 338 339 339 338 338 337 333 335 336 337 337 338 335 336 334
328 330 327 323 329 341 346 344 345 346 348 348 347 345 339 340 341 341 338 336 335 336 343 342 340 341 341 340 339 339 336 336 337 339 338 337 336 335 336 338 336 335 334

GFSSE_925_thetae_240.txt.gz
Theta_e
348 342 337 338 342 344 342 343 333 325 327 332 335 335 337 337 338 336 334 340 341 342 341 339 338 337 337 339 337 337 336 335 335 334 333 334 332 330 331 330 330 337 336
345 341 337 338 341 342 342 343 331 326 329 333 335 336 336 335 332 332 332 340 344 342 339 338 338 337 338 340 338 337 336 336 336 334 334 332 331 332 331 333 333 332 332
343 340 344 337 339 342 343 341 332 330 332 333 335 335 335 332 330 329 331 340 345 344 343 339 338 337 337 339 335 335 332 334 328 329 331 330 330 332 334 335 331 329 328
343 341 345 337 337 340 341 340 337 337 335 334 334 334 333 330 328 327 333 342 344 346 346 344 340 339 339 338 338 334 336 330 328 330 329 328 328 331 330 330 328 329 327
343 340 346 334 334 337 339 339 339 338 334 333 333 334 331 328 326 330 336 342 346 349 348 346 342 341 341 341 341 333 326 326 328 328 328 329 327 329 329 329 329 327 327
344 341 345 332 331 333 336 338 338 334 331 331 333 332 329 327 329 333 339 341 344 349 346 346 345 341 341 341 341 334 327 331 332 329 330 328 328 331 330 328 328 327 327
345 342 342 330 328 328 329 330 330 330 330 331 331 329 327 327 331 334 337 342 348 347 347 345 346 342 340 341 341 337 331 332 335 331 330 328 328 330 330 329 327 327 326
344 342 342 329 328 329 330 330 330 331 331 331 329 328 327 327 331 335 337 340 344 348 347 345 342 340 340 340 341 339 334 333 335 334 332 328 326 330 329 328 327 327 326
345 343 342 340 336 330 331 331 330 330 330 329 327 328 328 327 328 333 336 338 339 342 345 346 343 341 339 340 341 339 337 334 337 336 334 331 327 331 329 328 328 327 325
346 343 341 339 340 339 339 331 330 330 329 328 327 327 328 329 329 330 333 336 337 338 341 345 345 343 342 341 340 339 338 334 338 338 337 331 325 331 329 328 328 326 325
347 344 342 341 338 338 338 338 332 331 331 331 330 328 332 338 337 336 336 336 335 336 338 340 345 345 344 344 342 340 338 341 338 338 339 327 327 331 329 327 328 327 325
347 346 343 343 341 339 339 341 340 341 340 340 339 341 339 340 341 340 339 331 329 332 336 339 345 346 345 348 347 343 343 343 340 339 339 333 328 331 330 328 327 327 325
345 346 345 345 345 343 342 342 339 340 341 343 344 345 342 343 343 339 340 337 337 333 337 339 344 345 345 347 346 345 345 344 341 341 339 334 332 333 331 328 327 326 325
344 345 345 348 350 347 344 344 342 342 342 344 345 348 346 345 344 342 341 339 340 338 336 337 338 341 344 344 344 344 345 345 343 343 341 336 334 334 334 331 328 327 326
345 344 345 347 351 350 349 346 346 345 344 344 344 346 344 345 344 344 342 341 339 338 338 336 335 337 339 342 343 345 345 346 346 344 343 340 334 334 336 333 331 329 328
347 345 345 346 349 350 350 349 347 348 345 346 345 345 346 345 345 344 344 342 340 338 340 340 341 341 339 336 340 342 344 345 346 347 344 343 338 336 336 336 333 331 329
349 347 347 347 347 349 348 349 349 347 347 347 347 347 347 347 346 346 343 343 341 340 344 345 346 346 344 340 335 335 340 342 344 346 347 345 343 338 336 336 336 334 331
352 350 350 347 346 348 347 347 347 347 347 347 347 347 348 347 347 348 343 343 342 341 343 344 347 347 345 343 338 338 340 341 343 345 345 345 344 343 340 335 336 336 334
353 355 354 352 350 349 349 347 348 347 348 346 346 346 348 348 347 347 344 344 344 340 342 343 345 347 345 345 344 342 343 343 344 345 345 345 344 343 342 341 336 334 335
349 349 352 352 353 351 350 349 346 346 346 345 345 345 347 348 347 347 344 345 345 340 344 345 345 345 346 345 344 342 344 345 345 345 345 344 344 343 342 341 340 338 334
331 341 347 352 352 352 351 350 348 345 344 343 345 346 347 348 346 346 345 348 347 344 345 345 346 345 345 344 345 344 344 346 346 343 343 342 342 342 341 341 341 340 338
331 331 340 348 352 353 352 351 348 346 343 343 346 349 348 348 347 347 348 347 347 344 347 347 346 344 342 344 343 343 343 341 335 337 338 341 342 340 340 341 340 340 339
334 333 330 337 346 350 350 350 350 347 346 345 346 349 350 349 349 349 349 346 345 346 343 346 346 343 342 342 344 342 335 329 330 333 338 336 340 338 337 338 339 339 338
333 335 333 333 332 347 350 347 349 349 347 347 348 348 350 350 350 349 348 347 347 344 343 342 344 344 344 342 341 336 336 335 331 332 335 336 337 338 338 337 337 339 339
329 333 334 333 329 332 347 350 349 350 348 346 345 348 351 352 348 347 348 348 347 344 341 343 345 346 343 335 331 334 335 333 334 330 329 333 333 334 336 337 338 338 338
326 328 332 337 336 334 338 346 349 350 350 347 348 349 350 348 345 347 347 347 345 342 341 346 346 345 339 334 332 332 331 330 331 330 329 330 331 330 333 336 338 338 335

GFSSE_925_thetae_246.txt.gz
Theta_e
347 337 338 341 342 341 335 328 325 330 334 335 339 343 344 340 344 346 341 337 336 338 340 339 337 336 340 337 336 336 336 337 337 336 334 333 333 337 336 338 335 334 334
345 337 338 342 342 340 337 329 325 330 334 335 337 340 342 338 340 342 340 339 339 339 342 341 339 339 340 334 324 331 334 336 337 336 333 335 337 336 335 333 332 331 331
348 337 339 343 342 340 340 330 326 331 335 336 336 336 335 333 337 340 341 341 340 340 340 339 338 337 335 329 322 328 330 332 335 335 334 330 332 333 331 331 330 330 330
348 346 341 342 342 341 342 331 326 332 335 336 335 334 331 332 335 343 348 344 342 342 342 340 340 338 335 331 325 327 328 328 330 333 334 329 330 332 332 329 330 331 329
345 351 341 342 343 342 343 330 327 332 335 335 335 332 330 329 333 341 348 348 348 344 343 341 341 340 338 333 331 330 330 331 331 332 330 328 327 332 333 331 329 329 327
342 352 339 341 343 343 343 331 328 333 335 335 334 331 329 327 334 341 343 348 348 348 343 341 341 341 340 337 334 333 334 335 335 330 328 326 319 329 330 327 328 328 327
342 352 338 338 342 343 343 334 331 334 334 334 334 329 328 328 335 340 344 349 349 349 347 345 341 340 340 340 337 335 335 337 336 331 329 325 316 319 327 327 329 328 327
352 351 338 337 339 341 342 337 336 336 334 333 333 329 327 329 335 338 340 344 347 348 346 348 344 340 340 340 339 336 336 338 338 333 330 319 317 316 320 325 327 327 326
349 348 347 339 336 339 340 339 339 336 334 334 332 328 328 331 334 336 339 342 347 349 348 346 343 341 340 339 340 338 336 337 340 338 334 332 319 318 320 325 324 324 324
345 344 345 346 340 337 338 339 338 333 333 334 331 329 328 331 334 336 337 337 340 345 347 347 345 342 340 339 340 339 337 337 339 339 336 334 325 320 319 321 321 321 321
344 342 340 341 341 340 342 334 332 332 334 334 331 330 329 331 330 338 335 341 334 335 340 344 345 344 342 342 341 340 339 338 341 339 339 338 336 326 320 320 322 321 321
345 343 340 339 339 338 339 339 334 338 333 333 334 332 330 338 340 343 340 340 338 332 334 336 341 344 344 345 347 344 341 342 344 342 340 340 338 336 324 320 322 323 323
345 343 341 339 339 338 339 341 339 343 340 339 339 340 332 339 343 341 341 339 335 327 330 335 335 339 345 346 347 347 342 335 344 342 341 340 338 337 334 324 321 324 325
345 342 341 342 340 339 342 341 338 342 341 342 341 341 340 340 345 343 345 343 340 338 336 339 343 345 345 345 345 346 345 343 344 342 341 340 338 338 337 333 325 326 328
345 343 342 343 341 340 344 342 340 340 342 343 343 344 346 344 348 345 343 344 342 341 341 338 339 339 343 341 341 341 345 345 343 342 340 339 337 337 337 337 334 332 331
344 344 343 345 346 344 345 348 344 342 343 343 346 347 347 349 348 346 345 345 343 341 341 340 339 337 338 340 340 340 340 342 340 344 343 339 342 340 339 337 337 335 333
345 345 343 347 349 347 348 349 350 344 344 345 344 348 349 348 349 347 347 345 344 342 341 340 341 343 343 342 344 342 339 340 340 343 344 343 344 342 343 338 339 337 335
348 347 346 346 352 352 353 350 349 349 349 345 346 346 348 350 348 350 347 347 345 343 342 341 343 343 344 346 345 342 340 337 338 340 341 345 345 344 344 342 338 338 338
352 350 348 348 350 352 351 353 350 349 347 348 346 346 349 349 350 348 349 347 345 344 343 343 343 344 346 340 344 343 341 340 344 343 345 344 341 343 343 339 343 341 337
355 353 351 352 350 351 352 351 351 348 349 348 348 349 350 349 350 350 350 350 348 345 345 343 342 344 343 344 343 345 344 341 339 330 344 344 345 342 342 339 341 339 338
344 356 359 356 356 356 355 354 353 352 350 349 348 348 349 350 352 351 351 349 348 348 347 344 341 345 342 344 344 343 343 343 338 343 346 343 337 337 338 338 340 338 339
338 342 351 356 358 359 358 357 357 354 353 352 350 348 347 351 351 351 352 351 348 349 348 348 341 348 348 346 344 343 346 344 345 345 338 338 334 335 336 340 339 339 339
341 340 340 339 343 354 359 358 357 355 356 352 351 349 348 349 350 352 352 351 351 349 350 347 346 348 345 342 342 343 345 346 344 341 343 334 336 335 338 338 339 338 341
341 343 344 343 339 339 346 357 358 358 355 354 351 349 349 349 350 351 352 353 349 352 349 344 345 346 346 347 343 343 345 344 344 343 337 337 339 337 333 333 339 339 340
335 338 343 344 347 345 339 337 344 355 352 354 351 348 347 350 351 352 353 352 352 351 348 342 344 346 346 343 345 341 340 344 334 335 335 342 337 337 337 341 339 336 333
331 333 334 336 339 342 345 346 343 343 350 353 353 354 352 356 354 353 353 353 355 352 346 347 342 344 343 345 344 344 339 333 336 335 334 337 341 338 341 340 338 334 335